Time,TemperatureF,DewpointF,PressureIn,WindDirection,WindDirectionDegrees,WindSpeedMPH,WindSpeedGustMPH,Humidity,HourlyPrecipIn,Conditions,Clouds,dailyrainin,SolarRadiationWatts/m^2,SoftwareType,DateUTC
2013-06-10 00:00:00,80.3,74.3,30.05,SSE,158,5.0,12.0,82,0.00,,SCT023,0.00,0.00,VWS V14.00,2013-06-10 04:00:00,
2013-06-10 00:30:00,80.2,74.6,30.04,SSE,158,5.0,12.0,83,0.00,,SCT023,0.00,0.00,VWS V14.00,2013-06-10 04:30:00,
2013-06-10 01:00:00,80.0,74.7,30.03,SSE,158,4.0,11.0,84,0.00,,SCT023,0.00,0.00,VWS V14.00,2013-06-10 05:00:00,
2013-06-10 01:30:00,79.8,74.9,30.03,SSE,158,4.0,11.0,85,0.00,,SCT023,0.00,0.00,VWS V14.00,2013-06-10 05:30:00,
2013-06-10 02:00:00,79.7,74.8,30.02,SSE,158,4.0,11.0,85,0.00,,SCT023,0.00,0.00,VWS V14.00,2013-06-10 06:00:00,
2013-06-10 02:30:00,79.6,74.7,30.02,SSE,158,3.0,10.0,85,0.00,,SCT023,0.00,0.00,VWS V14.00,2013-06-10 06:30:00,
2013-06-10 03:00:00,79.6,74.7,30.02,SSE,158,3.0,11.0,85,0.00,,SCT023,0.00,0.00,VWS V14.00,2013-06-10 07:00:00,
2013-06-10 03:30:00,79.5,74.9,30.01,SSE,158,3.0,10.0,86,0.00,,SCT023,0.00,0.00,VWS V14.00,2013-06-10 07:30:00,
2013-06-10 04:00:00,79.5,74.9,30.00,SSE,158,4.0,11.0,86,0.00,,SCT023,0.00,0.00,VWS V14.00,2013-06-10 08:00:00,
2013-06-10 04:30:00,79.4,74.8,30.00,SSE,158,4.0,10.0,86,0.00,,SCT023,0.00,0.00,VWS V14.00,2013-06-10 08:30:00,
2013-06-10 05:00:00,79.4,74.8,29.99,SSE,158,4.0,11.0,86,0.00,,SCT023,0.00,0.00,VWS V14.00,2013-06-10 09:00:00,
2013-06-10 05:30:00,79.4,74.8,30.00,SSE,158,4.0,11.0,86,0.00,,SCT023,0.00,0.00,VWS V14.00,2013-06-10 09:30:00,
2013-06-10 06:00:00,79.4,74.8,30.01,SSE,158,2.0,9.0,86,0.00,,SCT023,0.00,0.00,VWS V14.00,2013-06-10 10:00:00,
2013-06-10 06:30:00,79.4,74.8,30.01,SSE,158,1.0,7.0,86,0.00,,SCT023,0.00,0.00,VWS V14.00,2013-06-10 10:30:00,
2013-06-10 07:00:00,79.7,75.2,30.01,SSE,158,2.0,7.0,86,0.00,,SCT023,0.00,15.00,VWS V14.00,2013-06-10 11:00:00,
2013-06-10 07:30:00,80.8,75.5,30.01,SSE,158,4.0,13.0,84,0.00,,SCT023,0.00,149.00,VWS V14.00,2013-06-10 11:30:00,
2013-06-10 08:00:00,81.4,76.1,30.02,SSE,158,5.0,13.0,84,0.00,,SCT023,0.00,110.00,VWS V14.00,2013-06-10 12:00:00,
2013-06-10 08:30:00,82.5,76.1,30.02,SSE,158,7.0,16.0,81,0.00,,SCT023,0.00,193.00,VWS V14.00,2013-06-10 12:30:00,
2013-06-10 09:00:00,83.0,76.2,30.03,SSE,158,7.0,17.0,80,0.00,,SCT023,0.00,153.00,VWS V14.00,2013-06-10 13:00:00,
2013-06-10 09:30:00,83.6,75.6,30.03,SSE,158,7.0,16.0,77,0.00,,SCT023,0.00,185.00,VWS V14.00,2013-06-10 13:30:00,
2013-06-10 10:00:00,83.7,75.7,30.03,SSE,158,7.0,15.0,77,0.00,,SCT023,0.00,175.00,VWS V14.00,2013-06-10 14:00:00,
2013-06-10 10:30:00,83.3,75.7,30.04,SSE,158,7.0,14.0,78,0.00,,SCT023,0.00,134.00,VWS V14.00,2013-06-10 14:30:00,
2013-06-10 11:00:00,85.1,75.5,30.04,SSE,158,7.0,14.0,73,0.00,,SCT023,0.00,222.00,VWS V14.00,2013-06-10 15:00:00,
2013-06-10 11:30:00,85.7,75.6,30.03,SSE,158,7.0,15.0,72,0.00,,SCT023,0.00,229.00,VWS V14.00,2013-06-10 15:30:00,
2013-06-10 12:00:00,85.4,76.2,30.03,SSE,158,7.0,15.0,74,0.00,,SCT023,0.00,162.00,VWS V14.00,2013-06-10 16:00:00,
2013-06-10 12:30:00,85.9,75.4,30.02,SSE,158,7.0,15.0,71,0.00,,SCT023,0.00,209.00,VWS V14.00,2013-06-10 16:30:00,
2013-06-10 13:00:00,86.1,75.6,30.01,SSE,158,8.0,16.0,71,0.00,,SCT023,0.00,212.00,VWS V14.00,2013-06-10 17:00:00,
2013-06-10 13:30:00,86.1,76.0,30.01,SE,135,8.0,16.0,72,0.00,,SCT023,0.00,190.00,VWS V14.00,2013-06-10 17:30:00,
2013-06-10 14:00:00,85.0,76.2,30.00,SE,135,8.0,16.0,75,0.00,,SCT023,0.00,153.00,VWS V14.00,2013-06-10 18:00:00,
2013-06-10 14:30:00,85.6,76.4,30.00,SSE,158,9.0,17.0,74,0.00,,SCT023,0.00,171.00,VWS V14.00,2013-06-10 18:30:00,
2013-06-10 15:00:00,86.0,76.3,29.99,SSE,158,7.0,14.0,73,0.00,,SCT023,0.00,161.00,VWS V14.00,2013-06-10 19:00:00,
2013-06-10 15:30:00,85.9,76.2,29.99,SE,135,6.0,14.0,73,0.00,,SCT023,0.00,144.00,VWS V14.00,2013-06-10 19:30:00,
2013-06-10 16:00:00,85.1,75.9,29.99,SE,135,7.0,15.0,74,0.00,,SCT023,0.00,137.00,VWS V14.00,2013-06-10 20:00:00,
2013-06-10 16:30:00,84.9,75.7,29.98,SSE,158,7.0,15.0,74,0.00,,SCT023,0.00,122.00,VWS V14.00,2013-06-10 20:30:00,
2013-06-10 17:00:00,84.6,75.4,29.97,SE,135,7.0,16.0,74,0.00,,SCT023,0.00,127.00,VWS V14.00,2013-06-10 21:00:00,
2013-06-10 17:30:00,85.0,75.8,29.97,SSE,158,6.0,14.0,74,0.00,,SCT023,0.00,152.00,VWS V14.00,2013-06-10 21:30:00,
2013-06-10 18:00:00,84.6,75.8,29.97,SSE,158,7.0,14.0,75,0.00,,SCT023,0.00,150.00,VWS V14.00,2013-06-10 22:00:00,
2013-06-10 18:30:00,83.8,75.8,29.97,SE,135,5.0,13.0,77,0.00,,SCT023,0.00,107.00,VWS V14.00,2013-06-10 22:30:00,
2013-06-10 19:00:00,83.7,76.1,29.97,SE,135,5.0,12.0,78,0.00,,SCT023,0.00,83.00,VWS V14.00,2013-06-10 23:00:00,
2013-06-10 19:30:00,82.5,75.7,29.97,SE,135,5.0,12.0,80,0.00,,SCT023,0.00,32.00,VWS V14.00,2013-06-10 23:30:00,
2013-06-10 20:00:00,81.9,75.5,29.97,SE,135,4.0,11.0,81,0.00,,SCT023,0.00,8.00,VWS V14.00,2013-06-11 00:00:00,
2013-06-10 20:30:00,81.5,75.8,29.99,SSE,158,3.0,10.0,83,0.00,,SCT023,0.00,0.00,VWS V14.00,2013-06-11 00:30:00,
2013-06-10 21:00:00,81.2,75.9,30.00,SE,135,3.0,10.0,84,0.00,,SCT023,0.00,0.00,VWS V14.00,2013-06-11 01:00:00,
2013-06-10 21:30:00,81.1,76.2,30.01,SE,135,2.0,10.0,85,0.00,,SCT023,0.00,0.00,VWS V14.00,2013-06-11 01:30:00,
2013-06-10 22:00:00,81.2,76.3,30.02,SE,135,2.0,8.0,85,0.00,,SCT023,0.00,0.00,VWS V14.00,2013-06-11 02:00:00,
2013-06-10 22:30:00,81.1,76.2,30.02,SSE,158,3.0,7.0,85,0.00,,SCT023,0.00,0.00,VWS V14.00,2013-06-11 02:30:00,
2013-06-10 23:00:00,81.1,76.5,30.02,SSE,158,3.0,7.0,86,0.00,,SCT023,0.00,0.00,VWS V14.00,2013-06-11 03:00:00,
2013-06-10 23:30:00,81.0,76.4,30.03,SSE,158,1.0,5.0,86,0.00,,SCT023,0.00,0.00,VWS V14.00,2013-06-11 03:30:00,